Tracking 31027 objects as of 19-Jul-2025
HD Live streaming from Space Station
objects crossing your sky now

ONEWEB-0504

Track ONEWEB-0504 now!
10-day predictions
ONEWEB-0504 is classified as:


NORAD ID: 54122
Int'l Code: 2022-138K
Perigee: 1,191.3 km
Apogee: 1,194.5 km
Inclination: 87.9 °
Period: 109.1 minutes
Semi major axis: 7563 km
RCS: Unknown
Launch date: October 22, 2022
Source: United Kingdom (UK)
Launch site: SRIHARIKOTA (SRI)
Your satellite tracking list
CZ-4C DEB
Track 1 satellite(s)




NASA's NSSDC Master Catalog

Two Line Element Set (TLE):
1 54122U 22138K   25199.45856073 -.00000016  00000-0 -71107-4 0  9993
2 54122  87.9219  11.2962 0002120  97.1353 263.0021 13.19724412132819
Source of the keplerian elements: AFSPC